SCP
0 0 0 0 0 0 0 0 0 0 0 0 0 0 0 0 0 0 0 0 0 0 0 0 0 0 0 0 0 0 0 0 0 0 0 -0 -0 -0 -0 -0 -0 -0 -0
0 0 0 0 0 0 0 0 0 0 0 0 0 0 0 0 0 0 0 0 0 0 0 0 0 0 0 0 0 0 0 -0 -0 -0 -0 -0 -0 -0 -0 -0 -0 -0 -0
0 0 0 0 0 0 0 0 0 0 0 0 0 0 0 0 0 0 0 0 0 0 0 0 0 0 0 0 -0 -0 -0 -0 -0 -0 -0 -0 -0 -0 -0 -0 -0 -0 -0
0 0 0 0 0 0 0 0 0 0 0 0 0 0 0 0 0 0 0 0 0 0 0 0 0 0 0 0 0 0 -0 -0 -0 -0 -0 -0 -0 -0 -0 -0 -0 -0 -0
0 0 0 0 0 0 0 0 0 0 0 0 0 0 0 0 0 0 0 0 0 0 0 0 0 0 0 0 0 0 0 0 0 -0 -0 -0 -0 -0 -0 -0 -0 -0 -0
0 0 0 0 0 0 0 0 0 0 0 0 0 0 0 0 0 0 0 0 0 0 0 0 0 0 0 0 0 0 0 0 0 0 -0 -0 -0 0 0 -0 -0 -0 -0
0 0 0 0 0 0 0 0 0 0 0 0 0 0 0 0 0 0 0 0 0 0 0 0 0 0 0 0 0 0 0 0 0 0 0 0 0 0 0 0 0 0 0
0 0 0 0 0 0 0 0 0 0 0 0 0 0 0 0 0 0 0 0 0 0 0 0 0 0 0 0 0 0 0 0 0 0 0 0 0 0 0 0 0 0 0
0 0 0 0 0 0 0 0 0 0 0 0 0 0 0 0 0 0 0 0 0 0 0 0 0 0 0 0 0 0 0 0 0 0 0 0 0 0 0 0 0 0 0
0 0 0 0 0 0 0 0 0 0 0 0 0 0 0 0 0 0 0 0 0 0 0 0 0 0 0 0 0 0 0 0 0 0 0 0 0 0 0 0 0 0 0
0 0 0 0 0 0 0 0 0 0 0 0 0 0 0 0 0 0 0 0 0 0 0 0 0 0 0 0 0 0 0 0 0 0 0 0 0 0 0 0 0 0 0
0 0 0 0 0 0 0 0 0 0 0 0 0 0 0 0 0 0 0 0 0 0 0 0 0 0 0 0 0 0 0 0 0 0 0 0 0 0 0 0 0 0 0
0 0 0 0 0 0 0 0 0 0 0 0 0 0 0 0 0 0 0 0 0 0 0 0 0 0 0 0 0 0 0 0 0 0 0 0 0 0 0 0 0 0 0
0 0 0 0 0 0 0 0 0 0 0 0 0 0 0 0 0 0 0 0 0 0 0 0 0 0 0 0 0 0 0 0 0 0 0 0 0 0 0 0 0 0 0
0 0 0 0 0 0 0 0 0 0 0 0 0 0 0 0 0 0 0 0 0 0 0 0 0 0 0 0 0 0 0 0 0 0 0 0 0 0 0 0 0 0 0
0 0 0 0 0 0 0 0 0 0 0 0 0 0 0 0 0 0 0 0 0 0 0 0 0 0 0 0 0 0 0 0 0 0 0 0 0 0 0 0 0 0 0
0 0 0 0 0 0 0 0 0 0 0 0 0 0 0 0 0 0 0 0 0 0 0 0 0 0 0 0 0 0 0 0 0 0 0 0 0 0 0 0 0 0 0
0 0 0 0 0 0 0 0 0 0 0 0 0 0 0 0 0 0 0 0 0 0 0 0 0 0 0 0 0 0 0 0 0 0 0 0 0 0 0 0 0 0 0
0 0 0 0 0 0 0 0 0 0 0 0 0 0 0 0 0 0 0 0 0 0 0 0 0 0 0 0 0 0 0 0 0 0 0 0 0 0 0 0 0 0 0
0 0 0 0 0 0 0 0 0 0 0 0 0 0 0 0 0 0 0 0 0 0 0 0 0 0 0 0 0 0 0 0 0 0 0 0 0 0 0 0 0 0 0
0 0 0 0 0 0 0 0 0 0 0 0 0 0 0 0 0 0 0 0 0 0 0 0 0 0 0 0 0 0 0 0 0 0 0 0 0 0 0 0 0 0 0
0 0 0 0 0 0 0 0 0 0 0 0 0 0 0 0 0 0 0 0 0 0 0 0 0 0 0 0 0 0 0 0 0 0 0 0 0 0 0 0 0 0 0
0 0 0 0 0 0 0 0 0 0 0 0 0 0 0 0 0 0 0 0 0 0 0 0 0 0 0 0 0 0 0 0 0 0 0 0 0 0 0 0 0 0 0
0 0 0 0 0 0 0 0 0 0 0 0 0 0 0 0 0 0 0 0 0 0 0 0 0 0 0 0 0 0 0 0 0 0 0 0 0 0 0 0 0 0 0
0 0 0 0 0 0 0 0 0 0 0 0 0 0 0 0 0 0 0 0 0 0 0 0 0 0 0 0 0 0 0 0 0 0 0 0 0 0 0 0 0 0 0
0 0 0 0 0 0 0 0 0 0 0 0 0 0 0 0 0 0 0 0 0 0 0 0 0 0 0 0 0 0 0 0 0 0 0 0 0 0 0 0 0 0 0
Wind_Speed_500mb
22 20 19 19 19 17 16 15 15 14 14 14 13 12 10 7 6 4 4 3 2 5 6 8 12 17 22 25 27 29 33 41 49 62 65 71 78 83 85 87 90 92 89
26 25 24 22 21 20 19 19 19 19 18 17 15 12 10 6 4 3 6 9 11 14 19 19 22 23 27 30 35 42 45 49 59 70 75 79 81 82 85 89 92 91 94
35 33 31 28 26 24 23 22 22 22 22 22 18 14 11 8 7 7 8 11 13 14 16 19 25 31 36 42 46 48 51 54 58 66 74 74 76 80 87 88 90 90 94
44 40 36 33 30 27 24 24 25 27 26 24 20 17 14 13 14 14 12 10 10 13 18 23 28 34 38 41 44 47 50 53 57 61 66 72 77 79 81 91 100 92 96
49 46 42 38 35 33 33 32 31 29 28 26 23 20 17 15 12 11 9 8 10 14 18 24 28 33 35 39 42 45 47 51 54 56 60 64 70 80 85 88 93 103 104
57 53 48 43 40 38 35 33 31 29 27 25 23 22 17 14 12 11 8 9 12 14 17 21 26 28 31 33 35 38 41 44 46 49 54 63 67 70 76 81 88 98 108
61 57 51 47 44 39 35 33 32 31 29 28 25 22 17 13 10 7 6 7 11 14 17 19 23 28 32 33 32 33 34 37 41 46 53 56 64 64 69 75 77 82 92
66 59 55 50 46 42 39 37 37 35 33 29 25 21 16 10 8 3 3 6 9 13 17 19 21 26 31 35 35 36 36 37 41 46 49 52 53 54 56 61 67 78 86
69 63 56 51 48 46 43 37 39 37 34 32 27 22 16 10 8 3 3 6 9 12 15 19 23 27 31 37 41 41 41 42 44 45 47 48 49 50 52 61 67 76 92
70 63 58 53 49 46 39 43 41 38 34 31 28 23 18 12 9 8 6 10 10 12 15 18 24 29 32 36 41 43 46 50 53 54 51 49 48 49 50 53 60 68 72
69 65 58 51 46 42 41 42 41 39 34 30 27 22 17 12 9 10 15 16 14 16 17 20 24 28 32 34 37 40 45 51 51 53 54 54 54 54 55 54 54 59 68
70 62 56 53 49 44 42 42 40 38 33 29 26 22 16 12 12 13 15 17 18 17 20 23 26 28 32 34 38 42 44 46 49 52 55 58 62 63 63 64 63 62 62
66 60 53 51 47 43 44 44 42 37 31 30 28 23 15 12 12 13 15 18 20 21 23 24 27 30 33 36 38 41 43 46 50 53 56 58 60 62 64 67 67 70 74
63 58 54 50 44 45 44 40 36 33 31 31 25 19 14 12 13 15 19 20 24 24 23 27 31 35 37 40 39 40 42 46 49 52 55 58 60 63 65 68 75 80 85
59 56 53 47 47 44 41 38 35 32 29 25 20 18 16 14 15 15 17 21 26 29 28 30 31 35 38 42 43 43 45 47 50 51 53 58 61 66 67 68 71 77 80
58 55 50 47 45 45 42 38 35 31 27 24 22 20 17 17 18 18 20 23 28 31 31 34 37 39 41 43 45 47 46 48 49 51 53 55 61 64 68 69 69 73 80
51 48 43 43 44 42 40 36 34 30 26 24 22 21 20 20 19 21 25 27 29 31 32 34 38 39 41 42 45 47 48 47 48 49 51 54 58 61 64 67 69 74 79
42 37 38 40 39 36 35 32 30 27 25 25 24 24 23 21 21 26 28 25 27 32 32 34 34 37 40 43 44 46 46 47 46 48 49 51 54 59 63 65 65 71 77
35 36 38 37 35 33 31 30 28 26 26 26 25 24 23 22 22 26 27 28 28 29 32 32 35 37 39 42 44 45 47 47 47 48 48 51 53 56 59 60 62 66 74
37 38 36 33 31 30 31 31 29 28 26 25 25 25 26 23 22 25 28 29 31 32 35 35 35 37 41 43 44 46 47 46 45 45 48 50 52 52 57 59 58 67 70
34 34 34 34 31 33 32 29 28 27 25 24 25 26 29 29 24 26 26 29 32 34 36 38 37 38 40 42 44 45 46 45 44 45 49 50 52 54 53 52 55 60 67
38 32 27 32 33 31 29 28 27 26 25 25 26 26 28 30 31 30 30 31 33 35 39 42 41 42 44 46 48 48 46 44 43 46 51 52 53 53 53 53 54 58 65
24 30 32 31 30 29 28 27 27 28 27 26 27 28 31 31 32 34 34 35 36 36 38 42 44 44 43 44 46 48 48 45 45 46 50 51 54 53 51 52 52 60 63
30 29 29 28 28 28 28 28 29 30 30 31 32 31 31 33 33 34 35 39 39 39 39 41 44 46 48 47 47 45 43 44 46 46 49 54 57 53 50 49 52 59 65
27 28 28 28 29 29 31 32 33 33 33 32 32 34 33 35 35 35 37 40 42 44 42 43 45 47 47 47 47 46 45 43 46 48 53 57 58 56 52 50 54 63 61
27 28 29 31 32 33 34 34 33 35 35 34 34 35 36 37 38 38 39 41 45 46 47 46 46 47 48 48 46 45 43 45 49 51 54 59 63 64 58 55 59 65 72
Wind_Direction_500mb
221 212 205 198 194 193 195 202 209 217 223 229 239 242 237 228 222 198 146 116 94 72 48 32 32 36 27 17 12 8 357 346 338 337 342 344 344 342 339 337 334 332 329
222 214 210 208 207 210 216 222 223 225 228 232 233 235 240 229 188 139 93 75 70 60 51 34 28 18 12 9 4 1 356 351 344 341 341 342 342 339 335 331 330 328 327
221 219 218 217 218 219 222 226 230 234 231 227 226 224 217 190 152 120 96 81 69 51 33 21 15 7 4 2 359 355 351 346 344 339 337 338 336 335 332 330 328 325 324
224 222 222 222 222 223 226 230 233 230 228 232 230 219 192 164 148 131 120 97 64 36 20 10 5 1 358 354 351 348 345 342 340 337 336 337 339 339 336 333 326 328 326
227 226 224 223 222 229 235 236 234 233 234 230 218 202 183 164 150 128 106 74 43 28 15 2 358 353 350 347 346 343 339 338 336 335 337 337 340 339 340 338 334 331 329
227 226 224 226 232 232 232 233 232 226 219 215 210 202 185 167 137 102 76 43 23 9 4 357 346 342 339 339 338 337 338 338 338 340 343 342 341 338 335 336 335 333 330
227 225 226 228 228 229 231 228 226 221 214 211 206 203 199 183 143 104 54 15 1 354 349 345 336 333 330 331 333 336 336 340 342 343 342 344 339 339 333 330 331 325 321
227 226 227 227 229 227 225 225 225 219 213 211 209 206 203 198 173 134 19 355 347 336 334 332 329 327 329 331 335 334 336 337 338 338 338 338 336 333 332 328 327 319 316
227 226 226 226 225 222 221 220 223 217 212 209 208 207 209 217 227 207 339 336 333 331 331 328 330 335 339 339 337 335 333 329 330 334 336 333 331 332 336 330 332 331 326
225 225 224 221 222 221 216 222 217 214 212 212 210 207 210 224 251 286 316 334 333 323 323 331 337 335 334 335 334 331 331 332 333 331 330 331 334 335 337 338 336 332 332
226 226 224 222 217 217 217 218 216 213 212 216 214 213 214 225 262 300 315 318 326 331 326 324 327 326 327 330 333 333 332 329 327 327 329 332 335 338 339 340 339 334 329
226 224 224 225 223 216 218 218 213 212 211 217 220 219 217 236 260 290 306 317 321 323 321 322 323 325 329 330 329 326 325 324 325 329 332 336 339 339 340 338 337 334 331
222 224 225 221 215 212 215 215 210 209 210 214 218 220 227 243 266 286 297 309 315 323 325 325 328 328 328 327 326 326 327 329 332 333 337 339 339 338 337 334 333 331 331
220 219 215 212 207 209 208 209 214 218 215 215 219 228 233 244 265 285 297 309 309 315 325 325 325 328 326 325 327 330 333 335 336 337 338 336 335 337 338 338 336 336 333
216 213 209 204 203 205 206 208 211 211 213 219 223 232 238 247 260 277 298 310 313 316 327 322 318 319 321 324 326 331 334 335 335 336 336 336 337 338 340 341 340 340 342
210 206 201 200 205 207 206 204 206 212 218 222 227 233 244 255 267 282 287 299 310 311 316 317 321 322 323 325 326 329 333 333 334 335 337 337 337 338 337 339 341 343 342
206 202 200 204 206 205 204 206 210 210 219 232 240 248 253 261 267 274 284 301 304 309 311 316 318 320 322 325 327 328 330 332 332 333 335 336 335 334 335 337 340 342 341
200 196 204 206 207 209 210 210 214 220 228 237 242 246 251 258 268 276 292 302 301 306 308 311 315 318 321 323 324 324 326 327 329 329 331 333 333 332 333 334 337 338 339
193 200 206 207 207 209 215 218 224 227 230 235 242 249 254 263 271 280 289 294 297 301 304 310 314 318 320 320 321 321 323 324 326 325 327 329 333 331 331 330 330 334 335
199 204 205 209 212 219 226 226 226 229 232 236 242 249 258 262 268 275 283 291 299 304 306 312 316 317 317 318 317 317 319 321 320 320 323 326 329 328 329 327 329 331 336
205 207 210 219 225 226 227 229 231 234 238 243 249 258 266 272 275 280 287 294 297 301 304 309 313 314 313 313 313 315 317 319 318 318 320 323 325 323 326 323 324 330 335
211 217 220 224 226 228 231 235 239 243 246 248 254 263 272 284 288 290 291 293 295 302 306 309 312 314 314 316 318 317 317 318 318 317 318 320 322 320 319 319 321 325 330
218 224 226 229 232 236 240 244 248 251 255 259 261 264 271 277 283 288 291 294 298 301 302 306 308 310 311 312 313 313 314 317 317 318 320 322 322 318 314 317 322 326 329
227 231 235 239 243 247 250 254 259 262 264 265 268 270 273 277 281 286 292 294 295 297 301 304 306 308 310 310 310 309 306 308 310 313 314 317 319 318 312 314 321 324 328
237 241 246 249 252 254 256 259 260 262 265 269 272 275 279 282 286 290 292 293 297 300 304 304 304 305 306 308 309 305 301 302 305 305 303 304 309 315 312 312 317 319 323
246 249 253 256 260 260 260 262 265 267 269 269 273 278 282 286 291 293 294 296 297 299 301 301 301 303 306 308 308 303 299 298 302 304 302 305 311 313 310 305 308 311 314
Wind_Speed_850mb
22 20 19 19 19 17 16 15 15 14 14 14 13 12 10 7 6 4 4 3 2 5 6 8 12 17 22 25 27 29 33 41 49 62 65 71 78 83 85 87 90 92 89
26 25 24 22 21 20 19 19 19 19 18 17 15 12 10 6 4 3 6 9 11 14 19 19 22 23 27 30 35 42 45 49 59 70 75 79 81 82 85 89 92 91 94
35 33 31 28 26 24 23 22 22 22 22 22 18 14 11 8 7 7 8 11 13 14 16 19 25 31 36 42 46 48 51 54 58 66 74 74 76 80 87 88 90 90 94
44 40 36 33 30 27 24 24 25 27 26 24 20 17 14 13 14 14 12 10 10 13 18 23 28 34 38 41 44 47 50 53 57 61 66 72 77 79 81 91 100 92 96
49 46 42 38 35 33 33 32 31 29 28 26 23 20 17 15 12 11 9 8 10 14 18 24 28 33 35 39 42 45 47 51 54 56 60 64 70 80 85 88 93 103 104
57 53 48 43 40 38 35 33 31 29 27 25 23 22 17 14 12 11 8 9 12 14 17 21 26 28 31 33 35 38 41 44 46 49 54 63 67 70 76 81 88 98 108
61 57 51 47 44 39 35 33 32 31 29 28 25 22 17 13 10 7 6 7 11 14 17 19 23 28 32 33 32 33 34 37 41 46 53 56 64 64 69 75 77 82 92
66 59 55 50 46 42 39 37 37 35 33 29 25 21 16 10 8 3 3 6 9 13 17 19 21 26 31 35 35 36 36 37 41 46 49 52 53 54 56 61 67 78 86
69 63 56 51 48 46 43 37 39 37 34 32 27 22 16 10 8 3 3 6 9 12 15 19 23 27 31 37 41 41 41 42 44 45 47 48 49 50 52 61 67 76 92
70 63 58 53 49 46 39 43 41 38 34 31 28 23 18 12 9 8 6 10 10 12 15 18 24 29 32 36 41 43 46 50 53 54 51 49 48 49 50 53 60 68 72
69 65 58 51 46 42 41 42 41 39 34 30 27 22 17 12 9 10 15 16 14 16 17 20 24 28 32 34 37 40 45 51 51 53 54 54 54 54 55 54 54 59 68
70 62 56 53 49 44 42 42 40 38 33 29 26 22 16 12 12 13 15 17 18 17 20 23 26 28 32 34 38 42 44 46 49 52 55 58 62 63 63 64 63 62 62
66 60 53 51 47 43 44 44 42 37 31 30 28 23 15 12 12 13 15 18 20 21 23 24 27 30 33 36 38 41 43 46 50 53 56 58 60 62 64 67 67 70 74
63 58 54 50 44 45 44 40 36 33 31 31 25 19 14 12 13 15 19 20 24 24 23 27 31 35 37 40 39 40 42 46 49 52 55 58 60 63 65 68 75 80 85
59 56 53 47 47 44 41 38 35 32 29 25 20 18 16 14 15 15 17 21 26 29 28 30 31 35 38 42 43 43 45 47 50 51 53 58 61 66 67 68 71 77 80
58 55 50 47 45 45 42 38 35 31 27 24 22 20 17 17 18 18 20 23 28 31 31 34 37 39 41 43 45 47 46 48 49 51 53 55 61 64 68 69 69 73 80
51 48 43 43 44 42 40 36 34 30 26 24 22 21 20 20 19 21 25 27 29 31 32 34 38 39 41 42 45 47 48 47 48 49 51 54 58 61 64 67 69 74 79
42 37 38 40 39 36 35 32 30 27 25 25 24 24 23 21 21 26 28 25 27 32 32 34 34 37 40 43 44 46 46 47 46 48 49 51 54 59 63 65 65 71 77
35 36 38 37 35 33 31 30 28 26 26 26 25 24 23 22 22 26 27 28 28 29 32 32 35 37 39 42 44 45 47 47 47 48 48 51 53 56 59 60 62 66 74
37 38 36 33 31 30 31 31 29 28 26 25 25 25 26 23 22 25 28 29 31 32 35 35 35 37 41 43 44 46 47 46 45 45 48 50 52 52 57 59 58 67 70
34 34 34 34 31 33 32 29 28 27 25 24 25 26 29 29 24 26 26 29 32 34 36 38 37 38 40 42 44 45 46 45 44 45 49 50 52 54 53 52 55 60 67
38 32 27 32 33 31 29 28 27 26 25 25 26 26 28 30 31 30 30 31 33 35 39 42 41 42 44 46 48 48 46 44 43 46 51 52 53 53 53 53 54 58 65
24 30 32 31 30 29 28 27 27 28 27 26 27 28 31 31 32 34 34 35 36 36 38 42 44 44 43 44 46 48 48 45 45 46 50 51 54 53 51 52 52 60 63
30 29 29 28 28 28 28 28 29 30 30 31 32 31 31 33 33 34 35 39 39 39 39 41 44 46 48 47 47 45 43 44 46 46 49 54 57 53 50 49 52 59 65
27 28 28 28 29 29 31 32 33 33 33 32 32 34 33 35 35 35 37 40 42 44 42 43 45 47 47 47 47 46 45 43 46 48 53 57 58 56 52 50 54 63 61
27 28 29 31 32 33 34 34 33 35 35 34 34 35 36 37 38 38 39 41 45 46 47 46 46 47 48 48 46 45 43 45 49 51 54 59 63 64 58 55 59 65 72
Wind_Direction_850mb
221 212 205 198 194 193 195 202 209 217 223 229 239 242 237 228 222 198 146 116 94 72 48 32 32 36 27 17 12 8 357 346 338 337 342 344 344 342 339 337 334 332 329
222 214 210 208 207 210 216 222 223 225 228 232 233 235 240 229 188 139 93 75 70 60 51 34 28 18 12 9 4 1 356 351 344 341 341 342 342 339 335 331 330 328 327
221 219 218 217 218 219 222 226 230 234 231 227 226 224 217 190 152 120 96 81 69 51 33 21 15 7 4 2 359 355 351 346 344 339 337 338 336 335 332 330 328 325 324
224 222 222 222 222 223 226 230 233 230 228 232 230 219 192 164 148 131 120 97 64 36 20 10 5 1 358 354 351 348 345 342 340 337 336 337 339 339 336 333 326 328 326
227 226 224 223 222 229 235 236 234 233 234 230 218 202 183 164 150 128 106 74 43 28 15 2 358 353 350 347 346 343 339 338 336 335 337 337 340 339 340 338 334 331 329
227 226 224 226 232 232 232 233 232 226 219 215 210 202 185 167 137 102 76 43 23 9 4 357 346 342 339 339 338 337 338 338 338 340 343 342 341 338 335 336 335 333 330
227 225 226 228 228 229 231 228 226 221 214 211 206 203 199 183 143 104 54 15 1 354 349 345 336 333 330 331 333 336 336 340 342 343 342 344 339 339 333 330 331 325 321
227 226 227 227 229 227 225 225 225 219 213 211 209 206 203 198 173 134 19 355 347 336 334 332 329 327 329 331 335 334 336 337 338 338 338 338 336 333 332 328 327 319 316
227 226 226 226 225 222 221 220 223 217 212 209 208 207 209 217 227 207 339 336 333 331 331 328 330 335 339 339 337 335 333 329 330 334 336 333 331 332 336 330 332 331 326
225 225 224 221 222 221 216 222 217 214 212 212 210 207 210 224 251 286 316 334 333 323 323 331 337 335 334 335 334 331 331 332 333 331 330 331 334 335 337 338 336 332 332
226 226 224 222 217 217 217 218 216 213 212 216 214 213 214 225 262 300 315 318 326 331 326 324 327 326 327 330 333 333 332 329 327 327 329 332 335 338 339 340 339 334 329
226 224 224 225 223 216 218 218 213 212 211 217 220 219 217 236 260 290 306 317 321 323 321 322 323 325 329 330 329 326 325 324 325 329 332 336 339 339 340 338 337 334 331
222 224 225 221 215 212 215 215 210 209 210 214 218 220 227 243 266 286 297 309 315 323 325 325 328 328 328 327 326 326 327 329 332 333 337 339 339 338 337 334 333 331 331
220 219 215 212 207 209 208 209 214 218 215 215 219 228 233 244 265 285 297 309 309 315 325 325 325 328 326 325 327 330 333 335 336 337 338 336 335 337 338 338 336 336 333
216 213 209 204 203 205 206 208 211 211 213 219 223 232 238 247 260 277 298 310 313 316 327 322 318 319 321 324 326 331 334 335 335 336 336 336 337 338 340 341 340 340 342
210 206 201 200 205 207 206 204 206 212 218 222 227 233 244 255 267 282 287 299 310 311 316 317 321 322 323 325 326 329 333 333 334 335 337 337 337 338 337 339 341 343 342
206 202 200 204 206 205 204 206 210 210 219 232 240 248 253 261 267 274 284 301 304 309 311 316 318 320 322 325 327 328 330 332 332 333 335 336 335 334 335 337 340 342 341
200 196 204 206 207 209 210 210 214 220 228 237 242 246 251 258 268 276 292 302 301 306 308 311 315 318 321 323 324 324 326 327 329 329 331 333 333 332 333 334 337 338 339
193 200 206 207 207 209 215 218 224 227 230 235 242 249 254 263 271 280 289 294 297 301 304 310 314 318 320 320 321 321 323 324 326 325 327 329 333 331 331 330 330 334 335
199 204 205 209 212 219 226 226 226 229 232 236 242 249 258 262 268 275 283 291 299 304 306 312 316 317 317 318 317 317 319 321 320 320 323 326 329 328 329 327 329 331 336
205 207 210 219 225 226 227 229 231 234 238 243 249 258 266 272 275 280 287 294 297 301 304 309 313 314 313 313 313 315 317 319 318 318 320 323 325 323 326 323 324 330 335
211 217 220 224 226 228 231 235 239 243 246 248 254 263 272 284 288 290 291 293 295 302 306 309 312 314 314 316 318 317 317 318 318 317 318 320 322 320 319 319 321 325 330
218 224 226 229 232 236 240 244 248 251 255 259 261 264 271 277 283 288 291 294 298 301 302 306 308 310 311 312 313 313 314 317 317 318 320 322 322 318 314 317 322 326 329
227 231 235 239 243 247 250 254 259 262 264 265 268 270 273 277 281 286 292 294 295 297 301 304 306 308 310 310 310 309 306 308 310 313 314 317 319 318 312 314 321 324 328
237 241 246 249 252 254 256 259 260 262 265 269 272 275 279 282 286 290 292 293 297 300 304 304 304 305 306 308 309 305 301 302 305 305 303 304 309 315 312 312 317 319 323
246 249 253 256 260 260 260 262 265 267 269 269 273 278 282 286 291 293 294 296 297 299 301 301 301 303 306 308 308 303 299 298 302 304 302 305 311 313 310 305 308 311 314